Find Starlink 30257

NORAD ID: 57526 Int'l Des: 2023-115 Owner: SPXS Country: US Constellation: starlink operational
LEOCIRCULAR

Live Position

Loading 3D Globe...

About Starlink 30257

Description loading...

Upcoming Passes

Passes for default location (London). Set your location on the main map for personalized predictions.

Altitude History

Loading altitude history...

Two-Line Element Set

1 57526U 23115F 26104.21681424 -.00001417 00000-0 -41998-4 0 9998
2 57526 43.0048 161.0684 0001422 261.0272 99.0418 15.27570401147781
Epoch: Apr 14, 2026 • Age: 4 hours

Current Status

Altitude 495.4 km
Velocity 7.62 km/s
Sub-Earth Point -43.02°S, 79.19°E
Launch Date Aug 8, 2023
Age 2.6 years
Type internet

Technical Details

Classification Payload
Mass 730.00 kg
Dry Mass 700.00 kg
Total Mass 730.00 kg
Length 0.30 m
Diameter 4.10 m
Span 29.00 m
Shape Box + pan
Manufacturer SPXS
Bus Type Starlink V2M
Phase Status In Orbit
Owner/State SPXS/US

Most Searched